Weather Roundup
Issued by NWS

Home | Current Version | Previous Version | Text Only | Print | Product List | Glossary On
Versions: 1 2 3 4 5 6 7 8 9 10 11 12 13 14 15 16 17 18 19 20 21 22 23 24 25 26 27 28 29 30 31 32 33 34 35 36 37 38 39 40 41 42 43 44 45 46 47 48 49 50
000
NZUS93 KARX 271159
HRRWXR

CURRENT HOURLY OBSERVATIONS ACROSS
MUCH OF THE UPPER MISSISSIPPI VALLEY
NATIONAL WEATHER SERVICE LA CROSSE WI
600 AM CST TUE JAN 27 2015


...SOUTHEAST MINNESOTA...


CITY           SKY/WX    TMP DP  RH WIND       PRES   REMARKS
ROCHESTER      CLOUDY    31  28  89 NE8       30.07R WCI  23
ROCHESTER/MAYO CLOUDY    32  26  79 N5        30.08R WCI  28
WINONA         CLOUDY    32  27  80 NE3       30.11R
AUSTIN         CLOUDY    34  27  75 N8        30.06R WCI  27
ALBERT LEA     CLOUDY    34  30  86 N5        30.07R WCI  30
DODGE CENTER   CLOUDY    34  28  80 NE8       30.06R WCI  27
PRESTON        CLOUDY    30  27  89 NE7       30.07R WCI  23
OWATONNA       CLOUDY    34  27  75 N5        30.08R WCI  30
FARIBAULT      CLOUDY    34  27  75 N5        30.09R WCI  30
$$

...ELSEWHERE IN MINNESOTA...


CITY           SKY/WX    TMP DP  RH WIND       PRES   REMARKS
MINNEAPOLIS    CLOUDY    33  25  72 NE6       30.09R WCI  28
INTNL FALLS    CLOUDY    22  20  92 CALM      30.06R
DULUTH         CLOUDY    25  21  85 CALM      30.07R
RED WING       CLOUDY    34  25  69 NE6       30.10R WCI  29
REDWOOD FALLS  CLOUDY    32  28  85 CALM      30.08S
MANKATO        CLOUDY    34  27  75 N5        30.09R WCI  30
WORTHINGTON    CLOUDY    28  27  93 NE9       30.07R VSB 1/2 WCI  20
FAIRMONT       CLEAR     28  25  86 N5        30.07S WCI  23
$$

...SOUTHWEST WISCONSIN...


CITY           SKY/WX    TMP DP  RH WIND       PRES   REMARKS
LA CROSSE      CLOUDY    31  23  72 N6        30.09R WCI  25
PRAIRIE DU CHI CLOUDY    31  22  70 N6        30.08R WCI  25
BOSCOBEL       CLOUDY    30  25  81 NE3       30.09R
LONE ROCK      NOT AVBL
PLATTEVILLE    CLOUDY    28  26  90 N9        30.04R WCI  20
FORT MC COY    CLOUDY    26  25  96 CALM      30.09R
CAMP DOUGLAS   CLOUDY    25  25 100 N3        30.08R
VIROQUA        CLOUDY    27  22  82 N12G21    30.04R WCI  17
WIS DELLS      NOT AVBL
$$

...ELSEWHERE IN WISCONSIN...


CITY           SKY/WX    TMP DP  RH WIND       PRES   REMARKS
MILWAUKEE      CLOUDY    28  20  71 E8        30.05R WCI  20
MADISON        CLOUDY    25  21  85 N7        30.06R FOG     WCI  17
GREEN BAY      CLOUDY    23  20  88 NE7       30.11R WCI  15
EAU CLAIRE     NOT AVBL
BLACK RVR FLS  CLOUDY    26  26  98 CALM      30.08R
MEDFORD        CLOUDY    21  19  94 CALM      30.05R FOG
WAUSAU         CLOUDY    22  20  92 NE5       30.05R FOG     WCI  16
WIS RAPIDS     CLOUDY    23  19  85 N5        30.09R WCI  17
MARSHFIELD     CLOUDY    23  20  88 N6        30.07R FOG     WCI  16
RICE LAKE      CLOUDY    28  23  83 N3        30.09S
$$

...NORTHEAST IOWA...


CITY           SKY/WX    TMP DP  RH WIND       PRES   REMARKS
DECORAH        CLOUDY    30  27  86 NE5       30.05R WCI  25
MASON CITY     CLOUDY    31  29  92 NW5       30.09R WCI  26
CHARLES CITY   CLOUDY    34  32  93 N7        30.05S WCI  28
OELWEIN        CLOUDY    34  30  86 NE8       30.04S WCI  27
$$

...ELSEWHERE IN IOWA...


CITY           SKY/WX    TMP DP  RH WIND       PRES   REMARKS
DES MOINES     CLEAR     33  29  85 N3        30.08R
IOWA CITY      PTCLDY    30  29  96 NW5       30.07R WCI  25
FORT DODGE     CLEAR     30  27  86 N3        30.09R
$$

...NORTHERN ILLINOIS...


CITY           SKY/WX    TMP DP  RH WIND       PRES   REMARKS
CHICAGO-OHARE  CLOUDY    27  25  92 N7        30.02R WCI  19
CHICAGO-MIDWAY CLOUDY    29  25  85 NE7       30.03R FOG     WCI  22
MOLINE         CLOUDY    34  28  79 N8        30.04R WCI  27
ROCKFORD       CLOUDY    27  23  85 N10       30.06R FOG     WCI  17
PEORIA         CLOUDY    32  27  81 N6        30.03R HAZE    WCI  26
$$

NOTE: "FAIR" INDICATES FEW OR NO CLOUDS BELOW 12,000 FEET WITH NO
SIGNIFICANT WEATHER AND/OR OBSTRUCTIONS TO VISIBILITY. WIND
SPEEDS ARE IN MILES-PER-HOUR.



USA.gov is the U.S. government's official web portal to all federal, state and local government web resources and services.